User: anonymous   Login
Location: Caltech
(34.1382°N, 118.1253°W)
Time: 08:47:12
(UTC-07:00)
Language:

Cosmos 1025 Rocket - Orbit

View from above orbital plane
View from above orbital plane
View from above satellite
View from above satellite

Ground track
Ground track

The orbit data is extracted from the following two-line orbital elements,

1 10974U 78067B   15147.12012299  .00000209  00000-0  20576-4 0  9998
2 10974 082.4809 161.3555 0016422 319.3460 040.6530 14.86982384995780
Epoch (UTC): 27 May 2015 02:52:58
Eccentricity: 0.0016422
inclination: 82.4809°
perigee height: 596 km
apogee height: 619 km
right ascension of ascending node: 161.3555°
argument of perigee: 319.3460°
revolutions per day: 14.86982384
mean anomaly at epoch: 40.6530°
orbit number at epoch: 99578

The dashed part of the orbit path shows where the satellite is in the earth's shadow,  

DLR